JA3VQW-13 Hirakata JP current weather conditions

sailwx.info

Wind from 275

Air temperature 16.7° C
Dewpoint 0.7° C

Last reported at 2017-Mar-27 05:52 UTC.
Time now 2017-Mar-27 06:41 UTC

Location: N 34°48' E 135°40'.
View on Google Maps.

See reports from other nearby stations

  
Tides and Currents Weather Stations Pressure Air Temp Water Temp Dewpoint Dewpoint Depression Visibility Wind Speed Wind Dir Waves Ship Positions
date/time (UTC)wind fromknots sea level pressurealtimeterstation pressurevisibilityair tempwater tempwave heightnotes
2017-Mar-27 05:52 275 16.7
2017-Mar-27 05:43 270 16.7
2017-Mar-27 05:37 291 16.1
2017-Mar-27 05:07 285 17.2
2017-Mar-27 04:37 255 15.0
2017-Mar-27 03:20 225 7.2
2017-Mar-27 02:50 225 7.2
2017-Mar-27 02:20 225 7.2
2017-Mar-27 01:50 225 7.2
2017-Mar-27 01:20 225 7.2
2017-Mar-27 00:50 225 7.2
2017-Mar-27 00:20 225 7.2
2017-Mar-26 23:50 225 7.2
2017-Mar-26 23:20 225 7.2
2017-Mar-26 22:50 225 7.2
2017-Mar-26 22:20 225 7.2
2017-Mar-26 21:50 225 7.2
2017-Mar-26 21:20 225 7.2
2017-Mar-26 21:10 225 7.2
2017-Mar-26 20:50 225 7.2
2017-Mar-26 20:20 225 7.2
2017-Mar-26 19:50 225 7.2
2017-Mar-26 19:20 296 7.2
2017-Mar-26 18:50 270 6.7
2017-Mar-26 18:20 180 7.2
2017-Mar-26 17:50 270 7.8
2017-Mar-26 17:20 284 7.8
2017-Mar-26 16:50 270 7.8
2017-Mar-26 16:20 270 8.3
2017-Mar-26 15:50 270 8.3
2017-Mar-26 15:20 248 8.3
2017-Mar-26 14:50 225 8.3
2017-Mar-26 14:20 248 8.3
2017-Mar-26 13:50 270 8.9
2017-Mar-26 13:20 225 8.9
2017-Mar-26 12:50 249 9.4
2017-Mar-26 12:20 180 9.4
2017-Mar-26 11:50 225 9.4
2017-Mar-26 11:20 270 10.0
2017-Mar-26 10:50 225 10.0
2017-Mar-26 10:20 270 10.0
2017-Mar-26 09:50 270 10.6
2017-Mar-26 09:20 270 10.6
2017-Mar-26 08:50 270 10.6
2017-Mar-26 08:20 270 11.1
2017-Mar-26 07:50 270 11.7
2017-Mar-26 07:20 292 12.2
2017-Mar-26 06:50 292 12.8
2017-Mar-26 06:20 270 13.9
2017-Mar-26 05:50 288 13.9
2017-Mar-26 05:20 218 15.0
2017-Mar-26 04:50 270 15.6
2017-Mar-26 04:20 225 15.0
2017-Mar-26 03:50 150 15.6
2017-Mar-26 03:20 270 16.1
2017-Mar-26 02:50 180 16.1
2017-Mar-26 02:20 266 15.0
2017-Mar-26 01:50 270 13.3
2017-Mar-26 01:20 315 12.8
2017-Mar-26 00:50 275 12.2
2017-Mar-26 00:20 225 11.7
2017-Mar-25 23:50 226 10.6
2017-Mar-25 23:20 270 8.9
2017-Mar-25 22:50 270 7.8
2017-Mar-25 22:20 270 7.2
2017-Mar-25 21:50 270 6.7
2017-Mar-25 21:20 270 6.7
2017-Mar-25 20:50 270 6.1
2017-Mar-25 20:20 270 5.6
2017-Mar-25 19:50 270 5.6
2017-Mar-25 19:20 270 6.1
2017-Mar-25 18:50 270 6.1
2017-Mar-25 18:20 270 6.1
2017-Mar-25 17:50 270 6.7
2017-Mar-25 17:20 270 6.1
2017-Mar-25 16:50 270 6.1
2017-Mar-25 16:20 270 6.7
2017-Mar-25 16:10 270 6.7
2017-Mar-25 15:50 270 7.2
2017-Mar-25 15:20 270 7.2
2017-Mar-25 14:50 270 7.8
2017-Mar-25 14:20 270 7.8
2017-Mar-25 13:50 270 8.3
2017-Mar-25 13:20 270 8.3
2017-Mar-25 12:50 270 8.9
2017-Mar-25 12:20 270 8.9
2017-Mar-25 11:50 270 9.4
2017-Mar-25 11:20 225 9.4
2017-Mar-25 10:50 248 10.0
2017-Mar-25 10:20 248 10.6
2017-Mar-25 09:50 248 11.7
2017-Mar-25 09:20 248 12.2
2017-Mar-25 08:50 248 12.8
2017-Mar-25 08:20 248 13.9
2017-Mar-25 07:50 248 14.4
2017-Mar-25 07:20 248 14.4
2017-Mar-25 06:50 225 15.0
2017-Mar-25 06:20 135 14.4